Change the Weather History Date:

Friday, December 7, 2012

  Actual Average Record
Temperature  
Mean Temperature 32 °F -  
Max Temperature 35 °F 31 °F 47 °F (1963)
Min Temperature 30 °F 17 °F -13 °F (1972)
Degree Days  
Heating Degree Days 32    
Moisture  
Dew Point 28 °F    
Average Humidity 84    
Maximum Humidity 100    
Minimum Humidity 65    
Precipitation  
Precipitation 0.00 in - - ()
Sea Level Pressure  
Sea Level Pressure 29.95 in    
Wind  
Wind Speed 7 mph (NNW)    
Max Wind Speed 12 mph    
Max Gust Speed -    
Visibility 10 miles    
Events      
Averages and records for this station are not official NWS values.
T = Trace of Precipitation, MM = Missing Value Source: NWS Daily Summary

Daily Weather History Graph

Daily Weather History Graph

Search for Another Location

Airport or City:

Trip Planner

Search our weather history database for the weather conditions in past years. The results will help you decide how hot, cold, wet, or windy it might be!

Date:

Astronomy

Dec. 07, 2012 Rise Set
Actual Time 7:16 AM CST 4:15 PM CST
Civil Twilight 6:43 AM CST 4:48 PM CST
Nautical Twilight 6:06 AM CST 5:24 PM CST
Astronomical Twilight 5:31 AM CST 5:59 PM CST
Moon 12:22 AM CST (12/7) 12:23 PM CST (12/7)
Length of Visible Light 10h 04m
Length of Day
8h 58m
Last Quarter, 38% of the Moon is Illuminated
Dec 7
Last Quarter
Dec 13
New
Dec 19
First Quarter
Dec 28
Full
Jan 4
Last Quarter

Hourly Weather History & Observations

Time (CST) Temp. Windchill Dew Point Humidity Pressure Visibility Wind Dir Wind Speed Gust Speed Precip Events Conditions
12:15 AM 32.0 °F 26.4 °F 30.2 °F 93% 29.88 in 10.0 mi WNW 5.8 mph - N/A   Scattered Clouds
12:55 AM 32.0 °F 26.4 °F 30.2 °F 93% 29.89 in 10.0 mi West 5.8 mph - N/A   Scattered Clouds
1:15 AM 32.0 °F 25.6 °F 30.2 °F 93% 29.90 in 10.0 mi West 6.9 mph - N/A   Mostly Cloudy
1:35 AM 32.0 °F 25.6 °F 30.2 °F 93% 29.90 in 10.0 mi WNW 6.9 mph - N/A   Overcast
1:55 AM 32.0 °F 24.8 °F 32.0 °F 100% 29.90 in 10.0 mi West 8.1 mph - N/A   Mostly Cloudy
2:15 AM 32.0 °F 25.6 °F 32.0 °F 100% 29.92 in 10.0 mi West 6.9 mph - N/A   Scattered Clouds
2:35 AM 32.0 °F 26.4 °F 32.0 °F 100% 29.92 in 10.0 mi SW 5.8 mph - N/A   Scattered Clouds
2:55 AM 32.0 °F 26.4 °F 30.2 °F 93% 29.92 in 10.0 mi West 5.8 mph - N/A   Scattered Clouds
3:15 AM 32.0 °F 25.6 °F 30.2 °F 93% 29.92 in 10.0 mi WNW 6.9 mph - N/A   Scattered Clouds
3:35 AM 32.0 °F 25.6 °F 30.2 °F 93% 29.92 in 10.0 mi WNW 6.9 mph - N/A   Scattered Clouds
3:55 AM 32.0 °F 25.6 °F 30.2 °F 93% 29.92 in 10.0 mi NW 6.9 mph - N/A   Overcast
5:20 AM 32.0 °F 25.6 °F 28.4 °F 87% 29.94 in 10.0 mi NW 6.9 mph - N/A   Scattered Clouds
5:45 AM 32.0 °F 24.8 °F 26.6 °F 80% 29.95 in 10.0 mi NW 8.1 mph - N/A   Clear
6:45 AM 32.0 °F 27.5 °F 26.6 °F 80% 29.96 in 10.0 mi NW 4.6 mph - N/A   Clear
7:45 AM 30.2 °F - 26.6 °F 86% 29.97 in 10.0 mi Calm Calm - N/A   Scattered Clouds
8:45 AM 30.2 °F 22.6 °F 26.6 °F 86% 29.98 in 10.0 mi NNW 8.1 mph - N/A   Mostly Cloudy
9:45 AM 32.0 °F 26.4 °F 26.6 °F 80% 29.99 in 10.0 mi North 5.8 mph - N/A   Mostly Cloudy
10:45 AM 32.0 °F 24.8 °F 26.6 °F 80% 29.99 in 10.0 mi North 8.1 mph - N/A   Mostly Cloudy
11:45 AM 33.8 °F 28.6 °F 26.6 °F 75% 29.97 in 10.0 mi North 5.8 mph - N/A   Scattered Clouds
12:45 PM 35.6 °F 30.7 °F 24.8 °F 65% 29.95 in 10.0 mi North 5.8 mph - N/A   Mostly Cloudy
1:45 PM 35.6 °F 30.7 °F 24.8 °F 65% 29.95 in 10.0 mi North 5.8 mph - N/A   Mostly Cloudy
2:45 PM 35.6 °F 30.7 °F 26.6 °F 70% 29.95 in 10.0 mi NNE 5.8 mph - N/A   Mostly Cloudy
3:45 PM 35.6 °F 30.7 °F 26.6 °F 70% 29.96 in 10.0 mi NNE 5.8 mph - N/A   Mostly Cloudy
4:45 PM 33.8 °F 27.7 °F 26.6 °F 75% 29.96 in 10.0 mi ENE 6.9 mph - N/A   Overcast
5:45 PM 33.8 °F 27.7 °F 26.6 °F 75% 29.97 in 10.0 mi ENE 6.9 mph - N/A   Overcast
7:45 PM 32.0 °F 26.4 °F 26.6 °F 80% 29.99 in 10.0 mi NNE 5.8 mph - N/A   Overcast
9:45 PM 30.2 °F 22.6 °F 26.6 °F 86% 29.97 in 10.0 mi NNE 8.1 mph - N/A   Overcast
10:15 PM 32.0 °F 23.0 °F 26.6 °F 80% 29.97 in 10.0 mi NNE 11.5 mph - N/A   Overcast
10:35 PM 32.0 °F 24.2 °F 26.6 °F 80% 29.98 in 10.0 mi NNE 9.2 mph - N/A   Overcast
10:45 PM 30.2 °F 20.8 °F 26.6 °F 86% 29.97 in 10.0 mi North 11.5 mph - N/A   Overcast
11:15 PM 32.0 °F 24.2 °F 26.6 °F 80% 29.98 in 10.0 mi NE 9.2 mph - N/A   Overcast
11:35 PM 32.0 °F 23.6 °F 26.6 °F 80% 29.98 in 10.0 mi NNE 10.4 mph - N/A   Overcast
11:55 PM 32.0 °F 24.2 °F 26.6 °F 80% 29.98 in 10.0 mi NNE 9.2 mph - N/A   Overcast